Date,TemperatureHighF,TemperatureAvgF,TemperatureLowF,DewpointHighF,DewpointAvgF,DewpointLowF,HumidityHigh,HumidityAvg,HumidityLow,PressureMaxIn,PressureMinIn,WindSpeedMaxMPH,WindSpeedAvgMPH,GustSpeedMaxMPH,PrecipitationSumIn
2014-1-1,10.9,8.0,3.4,3.7,0.8,-5.0,77,72,65,30.39,30.08,16,4,16,0.04
2014-1-2,10.5,4.4,0.9,-3.1,-5.2,-7.6,74,64,50,30.47,30.36,7,1,9,0.00
2014-1-3,34.7,19.5,0.7,23.9,10.5,-7.3,76,68,60,30.38,29.53,24,4,24,0.00
2014-1-4,36.6,20.7,9.9,29.4,12.0,1.0,82,69,58,30.19,29.55,23,5,23,0.00
2014-1-5,9.7,2.9,-8.4,1.0,-12.3,-24.2,68,49,36,30.55,30.19,25,7,25,0.00
2014-1-6,4.5,-3.6,-10.0,-12.3,-17.8,-24.0,61,50,41,30.54,30.30,15,1,15,0.00
2014-1-7,27.0,12.6,-3.1,8.1,0.4,-13.2,70,58,43,30.30,30.01,10,1,10,0.00
2014-1-8,22.1,17.7,12.6,11.8,6.9,2.3,79,62,54,30.36,30.19,11,2,11,0.00
2014-1-9,25.0,17.9,8.6,22.0,10.5,0.9,88,72,61,30.34,29.87,14,1,14,0.00
2014-1-10,34.4,30.8,25.0,33.3,29.1,21.7,96,94,87,29.87,29.46,13,1,13,0.00
2014-1-11,46.4,33.6,24.8,28.7,24.1,20.7,94,70,40,29.73,29.53,15,1,15,0.00
2014-1-12,55.0,41.5,30.1,35.7,27.9,24.0,81,60,31,29.64,29.33,15,1,15,0.00
2014-1-13,47.3,39.0,31.2,33.2,24.5,16.8,75,57,31,29.77,29.52,14,2,14,0.00
2014-1-14,46.1,32.6,18.1,32.5,15.8,5.4,66,50,29,30.17,29.55,31,6,31,0.00
2014-1-15,35.2,23.8,11.4,24.4,10.6,3.2,70,58,39,30.19,29.68,20,2,20,0.00
2014-1-16,43.9,33.0,15.1,28.9,15.5,2.2,77,50,33,30.00,29.61,34,6,34,0.00
2014-1-17,31.9,20.9,10.9,11.3,-5.0,-17.1,57,34,12,30.13,29.76,20,2,20,0.00
2014-1-18,42.2,31.6,20.8,30.9,18.2,11.5,75,58,42,30.00,29.54,35,5,35,0.00
2014-1-19,66.0,42.5,17.7,22.1,18.2,10.4,82,44,14,29.97,29.55,18,2,18,0.00
2014-1-20,47.3,32.0,4.8,30.7,17.5,-8.2,77,56,35,30.40,29.71,25,4,25,0.00
2014-1-21,24.7,9.4,-2.0,4.2,-11.1,-16.3,55,40,26,30.49,30.01,23,3,23,0.00
2014-1-22,27.0,17.7,0.0,17.5,4.2,-14.2,72,55,39,30.58,30.00,26,5,26,0.00
2014-1-23,15.7,4.8,-4.3,-9.0,-12.3,-15.1,62,46,27,30.84,30.45,17,3,17,0.00
2014-1-24,52.0,32.3,10.9,35.5,11.3,-11.1,58,42,26,30.45,29.59,23,4,23,0.00
2014-1-25,45.7,35.3,28.5,32.7,19.8,2.5,80,54,25,29.98,29.47,22,4,22,0.00
2014-1-26,52.6,37.1,6.1,30.9,16.3,-16.8,64,43,16,30.24,29.41,44,7,44,0.00
2014-1-27,11.2,4.7,-0.2,-11.4,-14.9,-18.5,52,40,26,30.49,30.24,18,3,18,0.00
2014-1-28,20.5,8.3,-2.4,-7.3,-10.6,-13.1,63,43,22,30.47,30.21,15,1,15,0.00
2014-1-29,45.4,24.1,1.5,9.0,1.4,-9.0,73,42,18,30.21,29.51,26,5,26,0.00
2014-1-30,40.8,31.3,17.7,21.3,8.9,2.7,64,40,23,30.02,29.33,28,6,28,0.00
2014-1-31,26.3,19.5,14.0,15.9,3.0,-3.1,82,49,32,30.13,29.92,13,2,13,0.02
2014-2-1,25.6,20.2,12.3,18.9,12.0,2.5,84,71,55,30.26,29.85,13,3,17,0.02
2014-2-2,28.2,14.0,2.2,9.2,3.0,-4.5,75,62,42,30.37,30.22,15,1,17,0.00
2014-2-3,30.9,18.3,4.7,16.0,7.6,-0.9,78,63,48,30.25,30.15,11,1,11,0.00
2014-2-4,23.5,16.9,3.7,20.3,13.1,-2.1,89,85,76,30.37,30.16,21,5,22,0.09
2014-2-5,10.0,4.3,0.0,-1.4,-5.1,-8.6,77,65,52,30.65,30.37,24,6,24,0.00
2014-2-6,11.2,2.0,-8.9,-3.7,-9.0,-17.1,68,60,46,30.64,30.39,11,1,11,0.00
2014-2-7,17.0,9.3,0.1,4.6,-1.7,-8.2,72,61,42,30.39,30.13,17,2,17,0.00
2014-2-8,30.6,19.9,11.7,16.9,12.0,4.4,82,71,50,30.16,29.95,14,2,14,0.00
2014-2-9,20.2,12.2,7.0,14.8,1.3,-5.0,79,61,50,30.43,30.16,14,3,14,0.00
2014-2-10,14.1,5.9,-1.8,-3.9,-6.3,-9.1,72,57,40,30.51,30.42,9,1,9,0.00
2014-2-11,18.8,11.5,2.6,6.4,0.4,-6.8,69,60,50,30.46,30.06,20,3,20,0.00
2014-2-12,29.3,22.8,16.4,19.8,14.6,4.8,85,71,58,30.06,29.78,18,2,18,0.02
2014-2-13,53.1,36.8,24.5,29.0,23.4,16.0,81,61,34,29.78,29.60,16,2,16,0.00
2014-2-14,29.3,23.5,19.2,19.5,12.9,7.4,81,64,44,30.05,29.53,16,4,16,0.02
2014-2-15,54.1,30.5,18.4,31.0,19.2,8.4,76,64,26,30.01,29.69,20,3,32,0.00
2014-2-16,32.4,28.4,22.9,25.5,22.6,18.0,82,79,74,30.11,29.79,14,3,14,0.00
2014-2-17,53.9,38.6,28.2,33.4,23.2,14.6,92,60,22,29.83,29.70,25,2,25,0.08
2014-2-18,66.4,45.5,29.5,27.4,22.9,15.4,76,46,15,29.82,29.49,23,2,23,0.00
2014-2-19,49.2,39.2,26.0,32.9,26.0,20.7,83,61,33,29.86,29.47,14,1,14,0.00
2014-2-20,41.3,35.4,26.3,35.7,27.7,13.5,95,74,55,29.67,29.35,25,5,25,0.24
2014-2-21,48.5,33.9,23.2,30.6,20.6,12.7,80,59,34,29.79,29.66,19,2,19,0.00
2014-2-22,39.1,32.2,28.2,27.3,19.6,10.7,86,61,36,30.12,29.79,14,3,14,0.00
2014-2-23,31.0,25.6,20.6,12.6,6.6,-2.5,57,44,31,30.32,30.12,14,3,14,0.00
2014-2-24,25.8,23.5,21.0,17.5,13.7,7.2,82,66,47,30.32,30.15,7,1,7,0.00
2014-2-25,21.1,13.6,8.3,16.8,2.0,-5.9,83,60,45,30.48,30.25,18,4,18,0.00
2014-2-26,35.8,19.3,1.8,13.8,3.4,-6.0,71,51,33,30.48,29.85,22,2,22,0.00
2014-2-27,25.1,13.8,5.6,10.0,-7.5,-17.8,60,39,19,30.17,29.86,11,4,17,0.00
2014-2-28,44.5,24.7,14.4,21.3,8.4,-2.6,81,52,27,30.07,29.72,19,5,19,0.01
2014-3-1,20.0,7.8,0.5,12.4,-2.3,-10.4,72,63,54,30.51,30.07,20,7,20,0.00
2014-3-2,4.1,-0.1,-3.3,-9.5,-15.4,-19.5,61,48,33,30.63,30.49,18,5,18,0.00
2014-3-3,17.7,8.6,-3.5,1.9,-7.3,-15.3,60,48,32,30.59,30.13,20,3,20,0.00
2014-3-4,35.6,23.8,11.2,18.9,9.5,1.7,68,55,36,30.13,29.89,11,1,11,0.00
2014-3-5,33.7,25.9,20.5,19.1,15.8,11.3,77,66,50,30.25,30.00,14,3,14,0.00
2014-3-6,40.6,30.7,24.4,31.6,24.9,18.6,89,79,68,30.23,29.75,16,4,21,0.00
2014-3-7,43.3,34.3,26.4,36.5,27.6,18.2,90,76,60,30.09,29.69,19,5,20,0.00
2014-3-8,40.3,28.5,18.9,19.2,14.9,11.9,78,58,32,30.29,30.09,19,3,19,0.00
2014-3-9,70.9,47.7,22.9,27.4,21.7,15.3,75,42,17,30.20,29.68,28,4,28,0.00
2014-3-10,75.6,56.0,38.8,34.8,29.5,27.0,65,40,18,29.68,29.46,11,0,11,0.00
2014-3-11,49.4,43.5,34.6,35.8,33.2,28.5,90,68,54,29.96,29.33,34,7,34,0.01
2014-3-12,52.5,39.0,28.5,31.2,25.0,18.5,86,61,27,30.11,29.96,15,2,21,0.00
2014-3-13,69.6,49.6,29.0,27.6,20.6,13.8,70,39,13,29.96,29.53,22,3,22,0.00
2014-3-14,59.5,50.0,38.8,29.6,18.6,9.9,56,31,15,29.84,29.49,22,3,22,0.00
2014-3-15,66.0,42.8,30.0,28.8,23.0,18.1,88,48,19,30.13,29.69,28,5,28,0.00
2014-3-16,39.8,30.6,24.2,26.6,14.0,5.6,88,53,27,30.32,30.00,20,5,20,0.00
2014-3-17,59.2,40.2,24.7,26.9,19.0,14.2,70,46,23,30.00,29.35,28,5,28,0.00
2014-3-18,55.3,44.1,32.5,31.9,27.8,23.1,88,54,37,29.67,29.30,23,4,23,0.00
2014-3-19,53.8,39.8,31.3,30.2,25.2,19.1,90,60,27,30.01,29.67,19,3,21,0.00
2014-3-20,65.8,46.0,28.1,29.0,22.8,15.0,84,47,16,29.95,29.70,11,1,11,0.00
2014-3-21,57.8,44.7,33.4,32.3,27.4,21.2,77,53,26,30.14,29.64,27,5,27,0.00
2014-3-22,33.2,28.0,21.4,21.5,8.1,-2.4,69,46,24,30.46,30.14,18,6,18,0.00
2014-3-23,40.6,28.8,16.9,9.6,6.1,2.8,62,39,23,30.49,30.22,14,1,14,0.00
2014-3-24,44.8,33.9,28.1,18.4,11.7,7.6,55,40,23,30.23,30.09,19,2,19,0.00
2014-3-25,39.9,29.9,22.5,21.2,5.0,-7.1,77,40,14,30.34,30.09,21,3,21,0.00
2014-3-26,65.5,41.9,24.8,38.5,21.2,3.1,82,46,23,30.09,29.48,40,8,40,0.00
2014-3-27,52.9,41.2,33.2,51.5,38.6,28.9,97,90,80,29.73,29.16,27,4,27,0.04
2014-3-28,40.2,33.9,26.7,29.2,26.9,22.5,85,76,62,30.16,29.73,13,2,13,0.00
2014-3-29,57.8,41.3,26.3,28.5,25.4,22.5,90,59,27,30.24,29.96,18,2,18,0.00
2014-3-30,76.0,58.6,40.2,33.0,29.7,26.3,69,38,17,29.95,29.50,31,6,31,0.00
2014-3-31,74.6,53.2,28.1,41.2,28.5,11.1,56,40,20,29.82,29.25,30,8,30,0.00
2014-4-1,44.2,34.3,23.8,18.5,15.6,12.2,65,47,32,30.04,29.82,20,2,20,0.00
2014-4-2,44.8,39.6,34.1,39.6,29.0,17.4,94,67,44,29.98,29.68,19,4,19,0.00
2014-4-3,41.3,38.7,33.1,39.5,37.2,31.6,96,94,92,29.69,29.57,17,4,17,0.10
2014-4-4,42.9,36.7,31.8,32.2,28.8,25.5,95,74,51,30.07,29.69,21,3,21,0.04
2014-4-5,61.3,43.9,25.8,32.8,25.6,17.5,89,56,20,30.08,29.84,21,3,21,0.00
2014-4-6,63.2,53.9,46.7,38.3,33.4,28.7,57,46,34,29.85,29.71,21,4,22,0.00
2014-4-7,65.8,53.5,42.3,43.9,34.4,20.5,83,53,18,29.80,29.63,21,2,21,0.00
2014-4-8,59.5,48.2,38.3,35.3,25.9,9.8,78,47,14,29.97,29.80,20,3,20,0.00
2014-4-9,83.0,57.7,31.8,33.6,24.2,16.6,67,33,10,29.95,29.46,25,4,25,0.00
2014-4-10,67.8,59.7,49.8,36.5,23.5,7.9,50,28,10,29.87,29.41,30,3,30,0.00
2014-4-11,79.0,60.6,39.9,30.7,24.5,16.7,55,29,11,29.92,29.67,15,2,15,0.00
2014-4-12,86.7,69.8,56.2,57.8,48.2,30.4,75,49,25,29.67,29.32,22,3,22,0.00
2014-4-13,64.3,44.7,30.1,54.3,41.4,28.5,96,89,67,29.84,29.39,33,9,33,1.31
2014-4-14,41.8,33.3,27.6,29.0,18.8,14.2,96,57,35,30.12,29.84,27,6,27,0.01
2014-4-15,53.9,40.1,26.0,29.3,21.4,14.9,76,49,27,30.13,29.73,22,2,22,0.00
2014-4-16,70.1,49.5,35.9,33.5,28.0,23.0,73,47,18,30.00,29.54,23,7,31,0.00
2014-4-17,56.9,41.6,31.9,27.9,24.8,20.1,74,54,25,30.26,30.00,19,2,19,0.00
2014-4-18,69.9,52.0,33.5,39.1,32.5,24.8,81,51,27,30.18,29.95,21,3,21,0.00
2014-4-19,79.9,66.5,52.6,44.0,40.9,38.2,62,41,25,29.96,29.80,28,5,28,0.00
2014-4-20,85.5,69.0,60.9,59.8,49.8,42.0,91,54,27,29.84,29.73,17,2,17,0.06
2014-4-21,74.9,65.4,58.3,59.6,40.3,12.1,95,52,10,29.99,29.76,22,5,22,0.01
2014-4-22,69.3,58.0,44.9,33.6,30.0,26.7,54,36,22,30.04,29.83,11,2,11,0.00
2014-4-23,58.3,53.3,47.7,47.6,40.9,32.6,84,64,38,29.83,29.49,16,3,16,0.20
2014-4-24,63.9,54.5,48.6,51.2,45.3,37.4,96,74,39,29.68,29.46,17,2,17,0.22
2014-4-25,81.6,61.8,40.3,44.9,37.5,27.7,92,50,16,29.73,29.58,23,2,23,0.00
2014-4-26,82.0,66.2,49.2,54.9,46.0,41.9,82,51,27,29.61,29.35,28,3,28,0.00
2014-4-27,69.3,63.2,58.3,58.9,55.4,48.7,97,77,55,29.35,29.10,23,3,23,0.42
2014-4-28,63.9,58.1,51.0,59.1,48.9,40.4,91,72,52,29.24,29.06,19,2,19,0.00
2014-4-29,51.0,44.9,38.8,47.4,40.5,34.0,93,85,70,29.77,29.23,21,4,21,0.06
2014-4-30,45.4,43.2,38.6,39.2,36.9,31.8,88,79,60,29.84,29.76,20,2,20,0.05
2014-5-1,49.6,45.4,42.2,39.9,37.3,35.7,91,74,59,29.88,29.78,17,2,17,0.00
2014-5-2,75.1,55.2,37.0,40.6,34.2,25.5,85,51,18,29.86,29.61,18,1,18,0.00
2014-5-3,75.1,61.4,46.0,42.7,36.4,30.3,74,42,22,29.81,29.69,10,1,10,0.00
2014-5-4,69.3,58.9,50.7,42.4,39.3,35.5,63,49,34,29.83,29.64,23,4,23,0.00
2014-5-5,73.2,60.7,48.2,42.6,39.7,35.7,71,48,27,29.70,29.62,18,4,18,0.00
2014-5-6,80.3,67.0,52.9,58.0,48.4,38.9,65,52,39,29.64,29.34,15,1,15,0.00
2014-5-7,96.3,78.3,62.7,64.5,55.5,35.3,92,53,14,29.47,29.28,26,3,26,0.00
2014-5-8,85.1,68.1,52.5,65.1,55.8,33.4,95,69,16,29.65,29.38,24,3,24,0.20
2014-5-9,71.1,56.8,44.1,41.2,38.1,33.1,81,54,25,29.76,29.64,15,1,16,0.00
2014-5-10,85.1,68.5,54.1,51.9,42.7,25.6,74,44,13,29.69,29.49,19,2,19,0.00
2014-5-11,76.8,63.6,55.9,68.7,57.0,39.3,98,80,44,29.65,29.33,21,2,21,2.42
2014-5-12,62.4,52.9,47.6,61.7,50.8,41.8,98,92,80,29.91,29.45,20,1,20,0.08
2014-5-13,61.6,52.3,43.5,42.2,34.6,27.0,84,54,28,30.16,29.92,17,2,17,0.00
2014-5-14,67.3,53.6,38.8,42.9,34.1,24.1,91,53,20,30.17,29.97,14,1,14,0.00
2014-5-15,54.4,47.7,39.1,34.8,26.2,21.5,66,44,29,30.08,30.02,21,2,21,0.00
2014-5-16,56.6,46.7,32.9,36.1,28.7,24.1,83,52,29,30.06,29.96,5,0,6,0.00
2014-5-17,68.6,54.3,38.0,42.5,31.6,18.2,93,49,15,30.04,29.95,13,1,13,0.00
2014-5-18,73.9,60.1,40.9,45.0,38.8,33.2,86,49,25,30.03,29.75,23,1,23,0.00
2014-5-19,82.2,70.2,59.0,62.0,56.4,44.8,82,63,46,29.77,29.45,29,2,29,0.00
2014-5-20,86.3,74.3,63.1,63.7,61.0,58.5,87,65,41,29.68,29.52,15,1,15,0.00
2014-5-21,82.8,72.6,63.4,62.8,47.2,39.9,77,43,23,29.92,29.67,14,2,15,0.00
2014-5-22,72.1,63.1,54.4,58.0,52.2,40.6,94,70,36,30.10,29.84,29,1,29,0.46
2014-5-23,79.6,66.4,54.4,57.0,51.8,43.4,96,65,30,30.06,29.92,11,0,11,0.00
2014-5-24,79.2,68.0,60.5,62.7,55.3,49.8,88,65,41,29.96,29.84,16,0,18,0.00
2014-5-25,80.7,69.5,64.3,69.0,65.4,62.6,96,87,62,29.85,29.71,16,0,17,0.15
2014-5-26,85.7,73.2,64.0,68.3,64.3,59.2,98,77,43,29.83,29.69,16,2,16,0.04
2014-5-27,89.0,73.5,64.2,66.2,62.1,54.4,96,71,32,29.79,29.70,30,1,30,0.71
2014-5-28,83.8,73.5,61.8,68.0,61.9,51.2,99,71,34,29.84,29.77,13,1,13,0.00
2014-5-29,85.3,74.4,64.8,65.8,62.9,60.3,88,69,47,29.87,29.77,11,1,11,0.00
2014-5-30,88.8,77.2,67.3,68.7,64.7,58.7,94,68,38,29.89,29.78,13,0,13,0.00
2014-5-31,87.4,77.1,66.6,68.7,64.4,60.2,95,67,41,29.88,29.71,14,2,19,0.00
2014-6-1,88.2,74.0,63.2,68.2,65.1,59.9,100,76,45,29.75,29.53,23,3,23,0.75
2014-6-2,84.0,71.9,60.2,64.5,59.4,50.8,98,69,34,29.79,29.61,11,0,11,0.00
2014-6-3,88.0,69.8,61.8,70.4,61.7,57.0,96,77,46,29.88,29.49,27,2,31,2.23
2014-6-4,78.1,69.3,61.5,65.2,62.5,58.9,98,81,54,29.71,29.49,17,1,17,0.12
2014-6-5,79.4,68.7,64.2,66.6,63.7,60.3,95,85,56,29.77,29.63,14,0,14,0.00
2014-6-6,86.7,74.7,63.7,69.8,63.8,55.2,98,72,35,29.79,29.67,14,0,14,0.00
2014-6-7,73.7,67.4,62.3,65.4,60.9,55.0,93,80,54,29.91,29.70,15,2,15,0.07
2014-6-8,69.3,62.8,56.5,60.2,56.5,52.2,91,80,69,29.94,29.80,11,1,11,0.00
2014-6-9,71.1,66.2,61.3,62.1,59.6,55.5,93,80,66,29.80,29.70,14,2,14,0.00
2014-6-10,77.9,68.9,60.1,59.9,55.3,51.2,80,63,45,29.74,29.66,11,1,11,0.00
2014-6-11,83.0,70.2,55.9,60.3,56.0,51.2,96,64,36,29.71,29.58,17,1,17,0.00
2014-6-12,75.3,68.1,59.5,59.8,47.0,37.8,73,49,28,29.91,29.65,16,2,16,0.00
2014-6-13,78.1,65.7,49.1,49.3,42.3,35.3,82,46,25,29.96,29.70,16,1,16,0.00
2014-6-14,84.3,72.7,59.8,67.8,60.4,48.7,76,66,55,29.74,29.36,28,3,28,0.00
2014-6-15,81.2,71.8,62.0,69.4,59.3,51.6,95,68,37,29.77,29.32,22,1,22,0.36
2014-6-16,88.2,74.9,62.6,75.4,68.1,60.3,97,81,57,29.77,29.43,31,3,31,0.00
2014-6-17,91.2,80.0,67.3,73.6,68.4,59.8,80,69,52,29.64,29.48,26,4,26,0.00
2014-6-18,92.7,83.0,74.2,74.4,72.1,70.4,90,71,51,29.61,29.51,23,3,23,0.00
2014-6-19,84.5,79.5,73.7,73.6,68.5,60.0,89,70,53,29.81,29.56,17,1,17,0.00
2014-6-20,92.7,77.4,63.9,70.2,66.1,57.3,97,72,37,29.87,29.67,28,2,28,3.65
2014-6-21,86.7,73.8,63.2,70.9,66.3,62.3,100,79,55,29.93,29.65,17,0,17,13.14
2014-6-22,81.2,74.2,68.3,70.8,66.7,61.4,95,78,59,29.73,29.59,16,1,16,0.11
2014-6-23,79.6,73.2,65.5,68.5,61.7,51.4,96,70,38,29.81,29.68,10,0,10,0.00
2014-6-24,83.2,73.0,62.9,64.0,59.0,50.3,90,64,35,29.86,29.79,6,0,6,0.00
2014-6-25,86.1,74.5,62.4,67.3,63.4,58.6,94,70,47,29.87,29.76,14,0,14,0.00
2014-6-26,84.0,72.8,67.4,73.6,68.7,64.6,97,88,68,29.79,29.63,24,0,24,0.62
2014-6-27,80.3,72.2,66.3,73.3,68.6,64.6,98,89,75,29.70,29.53,21,2,21,0.71
2014-6-28,80.5,73.7,66.0,69.8,66.1,61.4,95,78,58,29.70,29.50,18,2,18,1.62
2014-6-29,87.0,75.4,66.0,75.1,69.9,63.2,98,84,60,29.73,29.56,17,1,17,0.10
2014-6-30,81.6,74.6,66.8,75.9,69.7,60.7,96,85,62,29.60,29.43,17,1,18,0.00
2014-7-1,79.9,69.9,61.5,62.1,54.8,49.4,86,60,39,29.85,29.60,16,1,16,0.00
2014-7-2,70.3,62.3,56.7,53.8,51.0,46.4,86,68,45,30.03,29.85,13,0,16,0.00
2014-7-3,79.8,66.8,52.6,59.0,53.3,47.6,91,65,36,30.09,30.00,9,0,9,0.00
2014-7-4,83.2,71.8,59.5,62.4,59.6,56.6,91,68,46,30.10,29.94,20,1,20,0.00
2014-7-5,85.7,73.9,65.3,75.0,68.8,60.0,98,85,68,29.95,29.72,12,2,24,0.16
2014-7-6,94.5,80.9,70.4,77.8,72.4,67.4,98,77,53,29.72,29.60,11,1,11,0.17
2014-7-7,90.5,76.6,68.6,70.8,66.5,56.0,96,74,36,29.68,29.56,11,0,11,0.14
2014-7-8,82.0,73.4,64.8,67.7,57.9,49.9,93,61,35,29.83,29.66,14,0,14,0.00
2014-7-9,83.6,72.1,60.1,63.4,58.9,51.4,92,66,35,29.91,29.83,10,0,10,0.00
2014-7-10,85.1,74.7,63.2,67.3,64.1,60.9,94,71,51,29.88,29.79,18,2,20,0.00
2014-7-11,84.5,75.5,69.4,74.6,69.6,65.0,89,82,68,29.86,29.77,13,1,13,0.00
2014-7-12,90.1,78.6,72.1,74.2,71.1,67.6,94,79,51,29.84,29.76,12,1,12,0.00
2014-7-13,88.8,77.2,66.9,69.5,66.1,59.9,97,72,39,29.88,29.78,7,0,7,0.00
2014-7-14,75.3,69.2,61.0,69.4,53.8,41.6,93,61,33,30.00,29.77,15,1,15,0.07
2014-7-15,72.8,64.0,54.1,53.5,48.9,44.4,84,60,39,30.03,29.91,11,0,11,0.00
2014-7-16,76.0,66.5,55.0,57.1,51.0,43.8,93,60,33,29.95,29.87,10,0,10,0.00
2014-7-17,79.6,67.5,55.6,59.1,53.7,45.8,94,65,34,29.94,29.87,12,1,12,0.00
2014-7-18,77.0,69.5,60.1,61.6,59.7,57.5,92,72,55,29.92,29.81,18,2,19,0.00
2014-7-19,82.2,72.2,59.8,65.9,61.8,57.2,93,71,53,29.86,29.74,20,2,20,0.00
2014-7-20,87.6,76.3,65.3,72.6,67.2,61.5,88,74,59,29.76,29.63,21,2,21,0.00
2014-7-21,96.1,83.4,72.0,79.1,72.9,68.4,91,72,47,29.69,29.62,19,3,19,0.00
2014-7-22,92.3,84.0,76.0,76.3,70.8,65.7,83,65,49,29.97,29.67,15,2,17,0.00
2014-7-23,83.2,75.4,66.9,66.1,58.6,51.3,77,57,37,30.08,29.95,11,1,11,0.00
2014-7-24,83.0,73.3,63.7,63.2,61.2,58.6,88,67,48,30.05,29.68,24,1,24,0.00
2014-7-25,94.5,81.3,71.3,79.5,70.0,59.9,93,70,45,29.76,29.52,19,1,19,0.01
2014-7-26,84.9,78.8,73.0,75.2,73.1,70.8,94,83,70,29.73,29.59,12,1,12,0.00
2014-7-27,81.1,75.2,68.1,73.0,60.1,51.8,95,63,37,30.01,29.73,16,1,16,0.00
2014-7-28,78.8,68.8,59.2,59.7,55.4,51.2,88,64,41,30.11,30.01,7,0,7,0.00
2014-7-29,79.0,68.9,58.4,61.1,55.7,48.6,94,66,37,30.05,29.94,9,0,9,0.00
2014-7-30,81.1,69.1,56.7,59.8,54.4,46.9,96,64,33,30.00,29.93,11,1,11,0.00
2014-7-31,86.1,71.4,57.5,62.1,57.1,51.9,95,64,31,29.96,29.83,10,0,10,0.02
2014-8-1,82.4,72.7,65.2,64.9,61.8,57.8,90,70,45,29.95,29.86,10,0,10,0.00
2014-8-2,87.0,74.8,63.4,66.5,63.7,60.5,95,71,43,29.99,29.89,10,0,15,0.00
2014-8-3,85.9,74.1,63.1,70.6,65.9,59.2,97,77,51,30.01,29.84,24,2,24,0.78
2014-8-4,84.7,75.8,68.1,71.0,67.7,64.4,89,77,60,29.89,29.82,7,0,9,0.00
2014-8-5,85.3,77.4,70.4,71.5,69.2,63.9,95,77,52,29.90,29.80,11,0,11,0.06
2014-8-6,74.6,71.2,67.6,71.8,68.4,65.5,98,91,80,29.83,29.73,16,1,16,0.44
2014-8-7,77.2,71.4,68.1,72.4,69.3,67.1,99,93,78,29.80,29.73,7,0,7,0.03
2014-8-8,79.6,72.2,68.4,68.3,67.3,65.8,95,85,66,29.86,29.79,10,0,10,0.00
2014-8-9,82.6,73.2,68.1,70.4,68.3,66.2,98,86,62,29.88,29.79,9,0,9,0.05
2014-8-10,76.8,71.7,68.9,71.1,68.6,67.0,97,90,76,29.91,29.82,6,0,7,0.19
2014-8-11,77.2,70.6,64.2,68.4,59.2,50.6,98,70,41,29.98,29.89,14,1,15,0.00
2014-8-12,78.1,67.2,55.6,56.8,52.3,43.5,92,63,30,30.01,29.92,13,0,15,0.00
2014-8-13,82.2,68.4,55.4,60.7,56.3,50.9,97,69,38,30.01,29.90,10,0,10,0.00
2014-8-14,83.2,71.2,59.5,64.2,61.2,58.2,97,73,49,29.93,29.79,11,0,11,0.00
2014-8-15,73.2,70.1,67.1,69.0,65.8,62.0,98,86,76,29.79,29.68,10,0,10,0.29
2014-8-16,82.0,73.5,68.4,69.7,68.2,66.2,98,85,60,29.76,29.66,9,0,9,0.00
2014-8-17,87.2,75.5,66.4,71.4,68.6,65.5,98,81,55,29.82,29.71,11,0,11,0.00
2014-8-18,90.1,76.7,65.0,70.3,65.9,60.6,97,73,41,29.80,29.58,13,1,13,0.03
2014-8-19,89.5,78.0,68.6,69.9,65.7,56.8,97,70,36,29.66,29.57,9,0,9,0.00
2014-8-20,89.7,78.7,72.1,75.9,71.8,68.5,93,80,59,29.67,29.55,16,0,16,0.00
2014-8-21,91.2,81.3,72.7,77.0,71.3,67.5,92,73,51,29.67,29.57,13,1,13,0.06
2014-8-22,89.9,78.9,71.6,78.0,74.5,70.7,98,87,60,29.75,29.65,11,0,11,0.24
2014-8-23,91.4,78.5,69.8,75.8,72.5,67.7,97,83,55,29.78,29.57,16,1,16,1.50
2014-8-24,92.3,81.3,70.6,70.8,67.0,61.6,86,63,43,29.70,29.58,16,1,16,0.00
2014-8-25,82.4,74.5,68.3,70.3,63.9,54.6,95,71,49,29.90,29.68,13,1,13,0.00
2014-8-26,76.8,70.3,63.4,68.3,65.3,59.8,98,85,71,30.03,29.85,19,1,19,1.27
2014-8-27,73.7,69.9,67.3,71.3,68.2,65.3,100,94,87,30.01,29.86,10,0,10,1.25
2014-8-28,82.4,74.0,69.1,74.0,71.3,68.8,100,92,69,29.88,29.64,14,1,14,1.39
2014-8-29,75.8,70.2,67.1,72.0,69.3,65.8,99,97,83,29.68,29.60,18,0,18,2.28
2014-8-30,83.2,70.4,63.7,68.8,65.4,60.5,100,86,49,29.80,29.66,6,0,6,0.00
2014-8-31,84.7,72.6,67.1,75.2,68.5,65.3,98,88,66,29.69,29.37,16,1,16,0.63
2014-9-1,79.2,70.4,65.2,67.6,64.0,57.5,99,82,51,29.78,29.52,17,1,17,2.03
2014-9-2,82.2,69.8,57.8,64.1,58.1,53.0,96,70,38,29.86,29.74,8,0,10,2.15
2014-9-3,87.4,74.9,63.9,74.8,68.4,60.2,97,82,53,29.77,29.53,20,2,25,0.00
2014-9-4,93.8,80.7,72.5,74.6,70.2,53.4,90,72,46,29.79,29.52,17,2,17,0.00
2014-9-5,73.2,62.9,56.3,59.8,56.3,51.7,96,80,48,30.13,29.79,15,1,15,0.12
2014-9-6,72.8,60.6,50.7,55.8,51.1,45.2,99,75,40,30.18,30.08,6,0,7,0.01
2014-9-7,77.6,62.3,49.4,57.2,53.5,48.9,99,76,43,30.09,29.88,13,0,13,0.00
2014-9-8,84.7,70.5,58.4,70.0,62.1,54.4,90,75,55,29.88,29.61,16,1,19,0.00
2014-9-9,76.8,71.1,67.3,73.2,68.7,65.5,98,92,79,29.63,29.43,14,2,19,1.74
2014-9-10,67.8,62.1,54.8,67.5,59.2,50.4,99,91,78,29.95,29.43,14,1,16,0.00
2014-9-11,55.3,52.8,50.7,50.7,48.7,45.7,92,86,77,30.22,29.96,14,1,14,0.09
2014-9-12,52.6,47.9,42.3,47.3,43.7,40.7,96,86,66,30.35,30.21,15,1,15,0.51
2014-9-13,63.5,50.0,37.6,48.2,41.2,37.1,100,76,40,30.32,30.09,16,1,17,0.01
2014-9-14,72.7,60.3,48.8,55.2,49.5,45.2,94,70,45,30.09,29.92,12,1,12,0.00
2014-9-15,62.6,58.0,48.5,59.2,51.3,43.2,98,80,54,30.14,29.85,15,1,16,0.22
2014-9-16,70.3,55.7,41.8,53.1,47.7,41.1,99,77,46,30.15,29.85,12,1,13,0.00
2014-9-17,80.5,66.7,56.2,63.8,58.9,52.9,95,77,48,29.85,29.72,6,0,6,0.00
2014-9-18,77.6,65.9,58.4,61.3,58.6,55.0,98,79,46,29.88,29.80,11,0,11,0.00
2014-9-19,87.2,71.3,59.6,70.6,65.2,57.9,96,83,54,29.83,29.61,19,3,19,0.00
2014-9-20,86.1,74.2,66.9,69.6,63.2,50.7,96,72,35,29.89,29.63,14,2,17,0.00
2014-9-21,71.8,62.8,54.1,54.0,48.8,43.0,87,62,37,30.12,29.89,13,1,14,0.00
2014-9-22,75.3,59.9,47.7,56.9,50.9,45.8,99,76,37,30.18,30.04,10,0,12,0.18
2014-9-23,71.1,62.4,58.4,59.1,54.9,49.2,90,77,52,30.06,29.93,20,1,23,0.02
2014-9-24,71.1,64.2,59.3,62.4,58.2,54.2,90,81,73,30.01,29.92,14,1,15,0.00
2014-9-25,84.7,67.5,56.0,62.7,59.1,55.1,98,78,41,30.04,29.93,6,0,10,0.00
2014-9-26,85.3,69.6,59.3,62.4,58.9,50.3,98,73,31,29.97,29.88,15,0,15,0.00
2014-9-27,82.4,69.2,59.9,62.1,58.3,53.2,95,72,39,29.97,29.86,13,0,15,0.00
2014-9-28,83.2,67.9,56.2,62.0,58.7,54.9,98,76,42,29.99,29.88,12,0,12,0.00
2014-9-29,84.5,68.9,58.4,61.6,58.8,55.3,97,74,39,29.93,29.76,9,0,9,0.00
2014-9-30,74.9,65.1,61.2,64.6,61.0,55.2,99,87,62,29.79,29.60,7,0,11,1.68
2014-10-1,74.9,65.9,60.9,67.0,63.3,60.7,100,92,69,29.64,29.53,6,0,6,1.07
2014-10-2,64.7,59.3,51.7,64.7,57.1,50.5,100,93,77,29.73,29.58,16,1,16,0.04
2014-10-3,54.7,48.4,40.9,50.5,31.0,21.5,96,53,33,30.04,29.74,25,1,25,0.00
2014-10-4,56.9,44.8,36.3,35.7,25.9,19.8,70,49,25,29.99,29.70,9,0,12,0.00
2014-10-5,68.8,53.3,40.1,51.6,41.2,32.9,89,66,38,29.70,29.55,7,0,10,0.00
2014-10-6,69.3,56.9,47.9,51.9,45.3,36.8,88,68,31,29.63,29.50,6,0,7,0.00
2014-10-7,73.9,62.4,54.1,50.3,43.6,35.4,85,54,27,29.86,29.52,12,0,12,0.00
2014-10-8,70.1,57.3,45.5,45.0,40.3,32.5,81,55,26,30.01,29.87,7,0,7,0.00
2014-10-9,65.0,58.4,51.7,51.9,46.2,33.1,84,64,45,30.05,29.86,14,3,14,0.00
2014-10-10,54.4,49.0,40.6,38.7,35.1,31.9,90,60,44,30.15,30.03,11,1,11,0.00
2014-10-11,63.2,46.3,34.0,40.8,35.8,29.7,98,72,29,30.15,29.89,11,0,11,0.00
2014-10-12,58.4,49.6,39.6,52.3,45.9,37.0,97,87,75,29.89,29.56,16,1,16,0.29
2014-10-13,56.6,53.9,52.3,53.3,50.9,44.5,99,90,64,29.65,29.56,21,2,21,0.38
2014-10-14,65.8,56.4,48.2,44.9,39.6,30.6,76,56,27,29.88,29.62,14,2,21,0.00
2014-10-15,70.8,52.0,39.2,43.3,38.3,31.2,88,64,25,29.96,29.75,7,0,7,0.00
2014-10-16,76.8,57.5,43.3,48.1,40.9,32.6,90,59,26,29.75,29.58,12,0,12,0.00
2014-10-17,63.4,56.5,48.3,44.6,41.5,36.5,73,58,43,30.02,29.68,16,0,16,0.00
2014-10-18,58.3,47.1,39.8,43.7,40.1,36.2,93,78,54,30.17,30.02,7,0,7,0.00
2014-10-19,73.9,55.1,40.3,48.8,44.3,38.9,96,71,36,30.05,29.80,16,2,16,0.00
2014-10-20,72.5,57.1,47.0,49.4,43.3,33.2,92,66,24,29.97,29.80,7,0,7,0.00
2014-10-21,75.6,55.1,40.6,47.6,41.5,37.1,97,66,26,30.01,29.89,10,0,10,0.00
2014-10-22,75.4,61.6,51.1,61.7,51.2,43.7,98,70,47,29.98,29.83,22,0,22,0.68
2014-10-23,73.9,61.7,53.1,60.9,55.2,44.7,99,82,39,29.93,29.84,10,0,10,0.00
2014-10-24,76.0,62.2,52.8,62.0,56.7,50.5,99,84,54,29.87,29.73,14,0,14,0.00
2014-10-25,73.7,59.8,46.7,55.5,44.5,36.7,97,64,27,29.99,29.85,11,0,11,0.00
2014-10-26,82.6,64.6,51.9,57.2,47.8,38.5,82,55,40,29.87,29.37,14,0,14,0.00
2014-10-27,68.8,58.2,51.9,55.9,48.5,37.8,96,73,42,29.83,29.35,19,1,19,0.00
2014-10-28,59.0,50.4,42.1,38.2,29.5,24.3,67,46,27,30.06,29.82,13,0,13,0.00
2014-10-29,59.0,43.8,33.2,34.5,31.8,27.1,89,65,31,30.16,29.94,7,0,7,0.00
2014-10-30,62.6,49.3,39.5,41.9,37.0,32.0,83,64,43,30.25,29.85,22,2,22,0.00
2014-10-31,42.9,35.4,28.4,31.8,19.1,11.9,69,53,29,30.49,30.25,21,2,21,0.00
2014-11-1,51.7,37.4,24.7,24.2,20.3,15.7,81,54,25,30.39,30.05,20,1,22,0.00
2014-11-2,64.3,51.7,39.5,40.7,31.9,21.8,68,47,34,30.05,29.72,25,4,27,0.00
2014-11-3,65.5,55.0,44.9,53.2,46.4,38.1,90,73,57,29.92,29.65,21,3,21,0.08
2014-11-4,62.3,49.1,38.8,39.1,34.7,29.9,88,61,32,30.08,29.92,16,1,16,0.00
2014-11-5,67.8,50.4,37.6,47.2,35.9,30.6,84,60,31,30.03,29.84,15,1,15,0.04
2014-11-6,51.9,41.9,33.2,36.5,29.5,25.3,84,63,36,30.31,30.02,16,1,17,0.00
2014-11-7,62.6,48.4,31.8,40.5,32.2,28.1,88,57,29,30.14,29.63,30,3,30,0.00
2014-11-8,49.4,42.9,36.2,35.9,27.4,23.9,71,55,38,30.12,29.84,19,2,19,0.00
2014-11-9,60.9,47.2,37.0,38.0,33.9,27.3,80,61,38,29.83,29.43,13,0,14,0.00
2014-11-10,57.5,40.5,23.3,44.6,33.6,16.3,86,77,58,29.91,29.25,29,5,29,0.00
2014-11-11,26.6,21.8,18.0,20.5,12.4,6.8,91,67,55,30.40,29.91,23,4,23,0.00
2014-11-12,24.2,18.2,12.8,10.9,7.1,3.3,73,61,46,30.51,30.40,14,2,14,0.00
2014-11-13,27.3,20.8,14.9,13.1,9.9,5.1,78,63,42,30.53,30.43,10,2,16,0.00
2014-11-14,27.3,19.3,8.6,10.1,5.3,1.0,83,57,33,30.43,30.23,6,0,6,0.12
2014-11-15,27.8,25.6,18.8,24.2,17.2,5.2,91,72,42,30.22,30.06,10,0,10,0.07
2014-11-16,24.2,16.2,6.3,13.9,5.8,-1.1,81,64,43,30.17,29.99,14,1,14,0.00
2014-11-17,19.5,14.7,10.0,10.0,2.1,-2.3,70,57,41,30.24,30.07,19,2,19,0.00
2014-11-18,31.0,19.4,7.0,18.5,7.7,-1.7,73,61,43,30.22,29.76,12,1,12,0.00
2014-11-19,34.6,27.6,19.7,23.8,16.4,11.8,71,63,55,30.12,29.76,21,2,21,0.00
2014-11-20,32.2,21.8,14.3,17.0,13.4,9.0,81,70,52,30.20,30.11,7,0,7,0.00
2014-11-21,39.5,29.1,17.5,34.3,21.7,12.1,95,75,53,30.21,29.88,15,1,15,0.00
2014-11-22,59.2,46.4,35.5,53.9,43.3,34.0,96,90,60,29.89,29.43,20,3,20,0.00
2014-11-23,54.2,47.3,33.5,53.0,41.2,20.5,96,80,52,29.43,29.32,24,4,24,0.01
2014-11-24,36.3,30.4,25.3,21.9,14.9,3.4,69,53,36,30.03,29.42,20,3,20,0.00
2014-11-25,44.1,31.7,17.3,28.8,15.7,4.2,68,52,36,30.09,29.76,15,1,16,0.00
2014-11-26,38.6,31.5,21.9,35.5,26.0,16.3,93,80,68,30.40,29.72,27,5,27,0.05
2014-11-27,23.8,20.1,15.7,17.5,10.9,3.5,79,68,44,30.50,30.07,17,1,17,0.00
2014-11-28,54.7,36.8,23.0,31.2,26.5,17.5,85,68,39,30.07,29.50,15,1,15,0.00
2014-11-29,67.6,45.7,30.7,41.3,34.8,24.6,91,70,32,29.57,29.34,19,1,19,0.00
2014-11-30,30.6,19.4,13.3,24.6,5.2,-3.4,82,55,37,30.53,29.57,30,8,30,0.00
2014-12-1,21.9,16.8,14.0,3.3,-1.7,-6.2,58,44,29,30.70,30.38,18,3,18,0.00
2014-12-2,43.3,27.0,14.8,11.5,5.4,1.8,61,42,20,30.37,29.90,22,2,22,0.00
2014-12-3,36.2,29.8,23.2,15.4,11.9,8.0,63,48,31,30.32,30.05,10,1,10,0.00
2014-12-4,41.2,31.2,23.2,27.3,19.8,12.3,88,63,49,30.20,29.98,13,0,13,0.00
2014-12-5,43.2,36.3,30.3,41.2,34.8,27.2,98,94,88,30.27,29.96,6,0,6,0.00
2014-12-6,36.2,32.7,29.8,34.2,28.8,26.7,94,86,74,30.51,30.27,14,2,14,0.00
2014-12-7,38.8,34.7,31.8,38.3,33.8,29.5,98,97,91,30.42,30.06,17,2,17,0.00
2014-12-8,51.1,39.7,31.5,38.4,30.5,21.8,98,72,40,30.27,30.05,20,2,21,0.00
2014-12-9,32.2,26.9,21.4,25.1,21.5,16.8,86,80,68,30.42,30.27,13,1,13,0.00
2014-12-10,36.2,30.0,25.4,28.2,25.8,21.5,91,84,72,30.28,30.14,12,0,12,0.00
2014-12-11,39.6,35.2,31.5,33.8,30.8,28.1,90,84,75,30.17,30.10,10,0,10,0.00
2014-12-12,56.6,44.4,37.2,46.2,39.5,33.7,95,84,60,30.16,30.04,11,2,14,0.00
2014-12-13,54.5,50.3,47.1,51.7,49.0,46.0,98,95,86,30.04,29.79,13,2,18,0.00
2014-12-14,57.2,54.2,51.7,55.7,53.3,51.2,99,97,89,29.80,29.57,15,1,15,0.23
2014-12-15,53.1,40.0,26.9,52.5,38.6,20.7,99,95,77,29.92,29.46,27,3,27,0.74
2014-12-16,27.8,24.0,18.9,20.8,16.9,13.5,80,74,67,30.31,29.92,18,4,26,0.00
2014-12-17,27.6,22.9,17.5,19.7,14.5,10.9,80,70,57,30.32,30.20,9,1,9,0.00
2014-12-18,30.9,28.6,25.6,27.3,24.1,19.7,91,83,72,30.19,30.12,6,0,6,0.01
2014-12-19,32.9,31.1,30.1,29.8,28.7,27.5,94,91,87,30.18,30.05,13,1,13,0.00
2014-12-20,34.1,32.6,30.4,33.2,31.3,28.8,97,95,92,30.06,29.93,9,0,9,0.00
2014-12-21,42.3,38.9,34.0,41.8,37.7,33.2,98,95,91,29.94,29.53,20,3,20,0.00
2014-12-22,42.6,41.0,37.2,42.2,40.4,35.9,99,98,95,29.53,29.29,16,1,16,0.56
2014-12-23,37.2,35.1,33.4,35.9,33.6,32.4,97,94,90,29.82,29.38,17,3,17,0.15
2014-12-24,34.3,31.2,28.5,33.3,28.7,25.4,96,90,86,29.80,29.60,19,2,19,0.00
2014-12-25,48.8,37.0,28.5,34.5,29.6,26.4,92,76,53,29.63,29.49,14,1,14,0.00
2014-12-26,34.6,32.7,30.9,31.4,30.4,27.9,96,91,85,29.95,29.64,18,4,18,0.01
2014-12-27,30.7,23.8,18.3,29.4,17.7,12.9,95,78,57,30.20,29.95,14,1,14,0.00
2014-12-28,35.5,24.5,15.4,22.4,17.0,11.4,85,74,51,30.15,30.04,8,0,8,0.00
2014-12-29,26.1,18.7,4.7,22.4,13.5,-2.9,88,80,64,30.68,30.15,19,5,19,0.01
2014-12-30,7.9,2.7,-0.6,-3.0,-8.1,-10.4,71,60,47,30.90,30.68,14,2,14,0.00
2014-12-31,22.2,9.1,-1.6,4.8,-1.8,-8.9,74,61,44,30.77,30.21,20,2,20,0.00
2015-1-1,36.2,21.9,10.5,19.7,11.5,1.1,81,65,47,30.21,29.99,7,0,10,0.00
2015-1-2,32.8,24.9,16.9,23.4,18.1,13.2,86,76,53,30.18,29.90,10,0,10,0.00